Regional Weather Roundup
Issued by NWS

Home | Current Version | Previous Version | Text Only | Print | Product List | Glossary On
Versions: 1 2 3 4 5 6 7 8 9 10 11 12 13 14 15 16 17 18 19 20 21 22 23 24 25 26 27 28 29 30 31 32 33 34 35 36 37 38 39 40 41 42 43 44 45 46 47 48 49 50
000
ASUS43 KDTX 241101
RWRMI
MICHIGAN HOURLY REGIONAL WEATHER ROUNDUP
NATIONAL WEATHER SERVICE DETROIT/PONTIAC MI
700 AM EDT WED AUG 24 2016

NOTE: "FAIR" INDICATES FEW OR NO CLOUDS BELOW 12,000 FEET WITH NO
SIGNIFICANT WEATHER AND/OR OBSTRUCTION TO VISIBILITY.

MIZ047>049-052>055-059>063-066>070-074>076-081>083-241200-
SOUTHEAST LOWER MICHIGAN

CITY           SKY/WX    TMP DP  RH WIND       PRES   REMARKS
ADRIAN         PTCLDY    60  59  96 S3        30.16F
ALMA           CLEAR     62  61  96 S5        30.10F
ANN ARBOR      CLEAR     56  56 100 SE3       30.15F FOG
BAD AXE        CLEAR     61  58  90 S7        30.15S
CARO           CLEAR     57  57  98 CALM      30.13S
DETROIT CITY   CLEAR     66  63  90 S5        30.17S
DETROIT        MOCLDY    64  60  87 S5        30.17F
FLINT          CLEAR     63  58  83 S6        30.14F
GROSSE ILE     CLEAR     69  64  82 S9        30.16F
HILLSDALE      CLEAR     62  58  88 S3        30.15R
HOWELL         PTCLDY    62  59  92 SE5       30.15S

CITY           SKY/WX    TMP DP  RH WIND       PRES   REMARKS
JACKSON        CLEAR     63  60  90 S5        30.14S
LAMBERTVILLE   CLEAR     61  58  92 SE3       30.17F
LANSING        PTCLDY    64  58  80 S9        30.12S
LAPEER         NOT AVBL
MASON          CLEAR     61  58  90 S3        30.13S
MONROE         CLEAR     61  59  91 E7        30.16F
MT. CLEMENS    CLEAR     64  61  90 S5        30.15S
PONTIAC        PTCLDY    63  59  87 SE5       30.15F
PORT HURON     FOG       61  61 100 CALM      30.17S VSB<1/4
TRI CITIES     CLEAR     63  60  90 S9        30.11F
MIDLAND        FAIR      63  58  83 S6        30.09S
TROY           CLEAR     65  60  82 S3        30.18S
SAGINAW HB     CLEAR     61  59  94 S7        30.11S
$$
MIZ043>046-050>051-056>058-064>065-071>073-077>080-241200-
SOUTHWEST LOWER MICHIGAN

CITY           SKY/WX    TMP DP  RH WIND       PRES   REMARKS
BATTLE CREEK   CLOUDY    64  61  90 S8        30.11F
BENTON HARBOR  MOCLDY    70  61  73 S8        30.05F
BIG RAPIDS     CLOUDY    64  61  91 CALM      30.04F
COLDWATER      CLEAR     63  61  93 SE6       30.13S
FREMONT        CLOUDY    65  63  91 S6        30.03F
HOLLAND        MOCLDY    66  62  87 S8        30.05F
GRAND RAPIDS   LGT RAIN  67  61  81 S9        30.07F
IONIA          CLOUDY    63  59  88 SE7       30.08F
KALAMAZOO      MOCLDY    67  59  75 S6        30.10F
LUDINGTON      LGT RAIN  68  65  92 S7        29.97S
MARSHALL       CLOUDY    64  61  88 SE3       30.12S
MOUNT PLEASANT CLEAR     63  59  89 S5        30.07F
MUSKEGON       MOCLDY    68  64  87 SE10      30.02F
SOUTH HAVEN    CLOUDY    70  64  81 S7        30.05F
$$
MIZ016>042-241200-
NORTHERN LOWER MICHIGAN

CITY           SKY/WX    TMP DP  RH WIND       PRES   REMARKS
ALPENA         CLEAR     57  54  89 SE3       30.09F
BEAVER ISLAND  CLOUDY    68  63  83 SE6       29.99S
BELLAIRE       CLOUDY    68  59  74 S5        30.01F
CADILLAC       CLOUDY    64  59  82 S8        30.03F
CHARLEVOIX     CLOUDY    66  60  81 SE6       30.03F
FRANKFORT      CLOUDY    68  64  86 SE8       29.95F
GAYLORD        CLOUDY    64  58  80 S9        30.05F
GRAYLING       CLOUDY    63  59  87 CALM      30.07S
HARBOR SPRINGS CLOUDY    64  60  87 N3        30.02R
HOUGHTON LAKE  MOCLDY    63  59  87 S9        30.08F
MANISTEE       CLOUDY    68  63  84 VRB6      29.97F
OSCODA         CLOUDY    60  60 100 CALM      30.10S
PELLSTON       CLOUDY    63  59  87 SE5       30.03F
ROGERS CITY    PTCLDY    62  58  87 S8        30.07F
TRAVERSE CITY  CLOUDY    68  60  75 VRB5      29.98F
$$
MIZ007>008-015-241200-
EASTERN UPPER MICHIGAN

CITY           SKY/WX    TMP DP  RH WIND       PRES   REMARKS
KINROSS        CLOUDY    61  60  97 SE8       30.02F
MACKINAC ISLAN PTCLDY    65  60  84 S10       30.02S
NEWBERRY       PTCLDY    65  64  97 S7        29.99R
S. S. MARIE    CLEAR     61  58  90 E3        30.02F
$$
MIZ004>006-011>014-085-241200-
CENTRAL UPPER MICHIGAN

CITY           SKY/WX    TMP DP  RH WIND       PRES   REMARKS
MANISTIQUE     CLOUDY    68  65  92 S7        29.95F
ESCANABA       LGT RAIN  68  67  96 S12       29.91F
MENOMINEE      LGT RAIN N/A N/A N/A S8        29.92R
SAWYER-GWINN   LGT RAIN  64  61  88 S9        29.90F
$$
MIZ001>003-009>011-084-241200-
WESTERN UPPER MICHIGAN

CITY           SKY/WX    TMP DP  RH WIND       PRES   REMARKS
IRON MOUNTAIN  CLOUDY    65  62  90 S7        29.88F
HOUGHTON       CLOUDY    65  61  87 E5        29.85F
COPPER HARBOR    N/A     67  63  87 SW5       29.85F
IRONWOOD       LGT RAIN  66  65  96 E3        29.84F
$$

ABBREVIATIONS USED IN REMARKS
   TC - TEMPERATURE IN CELSIUS
  WCI - WIND CHILL INDEX
   HX - HEAT INDEX
  VSB - VISIBILITY





USA.gov is the U.S. government's official web portal to all federal, state and local government web resources and services.